TimeMST,TemperatureF,Dew PointF,Humidity,Sea Level PressureIn,VisibilityMPH,Wind Direction,Wind SpeedMPH,Gust SpeedMPH,PrecipitationIn,Events,Conditions,WindDirDegrees,DateUTC
12:15 AM,55.2,40.6,58,29.95,10.0,West,13.8,19.6,N/A,,Clear,260,2013-11-17 07:15:00
12:35 AM,54.1,40.1,59,29.94,10.0,West,10.4,-,N/A,,Clear,260,2013-11-17 07:35:00
12:55 AM,52.7,41.2,65,29.96,10.0,SW,9.2,-,N/A,,Clear,230,2013-11-17 07:55:00
1:15 AM,52.3,41.4,66,29.95,10.0,West,13.8,-,N/A,,Clear,260,2013-11-17 08:15:00
1:35 AM,51.8,41.4,68,29.98,10.0,WSW,6.9,-,N/A,,Clear,240,2013-11-17 08:35:00
1:55 AM,52.3,41.4,66,29.96,10.0,WSW,8.1,-,N/A,,Clear,250,2013-11-17 08:55:00
2:15 AM,52.0,41.5,68,29.98,10.0,SW,8.1,-,N/A,,Clear,220,2013-11-17 09:15:00
2:35 AM,51.3,41.5,69,29.97,10.0,WSW,8.1,-,N/A,,Clear,240,2013-11-17 09:35:00
2:55 AM,51.1,41.5,70,29.99,10.0,WSW,5.8,-,N/A,,Clear,250,2013-11-17 09:55:00
3:15 AM,49.8,41.2,72,29.98,10.0,West,10.4,-,N/A,,Clear,270,2013-11-17 10:15:00
3:35 AM,49.1,40.5,72,29.99,10.0,West,6.9,-,N/A,,Clear,260,2013-11-17 10:35:00
3:55 AM,47.3,39.9,76,29.99,10.0,WSW,6.9,-,N/A,,Clear,250,2013-11-17 10:55:00
4:15 AM,47.8,40.3,75,29.99,10.0,WSW,9.2,-,N/A,,Clear,250,2013-11-17 11:15:00
4:35 AM,47.8,40.1,75,29.99,10.0,SW,4.6,-,N/A,,Clear,230,2013-11-17 11:35:00
4:55 AM,45.3,39.2,79,29.99,10.0,WSW,5.8,-,N/A,,Clear,240,2013-11-17 11:55:00
5:15 AM,47.1,39.7,76,30.00,10.0,West,10.4,-,N/A,,Clear,260,2013-11-17 12:15:00
5:35 AM,48.7,40.1,72,30.01,10.0,West,15.0,-,N/A,,Clear,270,2013-11-17 12:35:00
5:55 AM,50.5,40.1,67,30.01,10.0,West,16.1,20.7,N/A,,Clear,270,2013-11-17 12:55:00
6:15 AM,50.0,39.9,68,30.01,10.0,West,13.8,-,N/A,,Clear,270,2013-11-17 13:15:00
6:35 AM,47.1,39.2,74,30.03,10.0,ESE,4.6,-,N/A,,Clear,110,2013-11-17 13:35:00
6:55 AM,44.2,38.5,80,30.05,10.0,ESE,4.6,-,N/A,,Clear,110,2013-11-17 13:55:00
7:15 AM,48.0,39.7,73,30.06,10.0,Calm,Calm,-,N/A,,Clear,0,2013-11-17 14:15:00
7:35 AM,49.3,40.1,71,30.07,10.0,South,8.1,-,N/A,,Clear,190,2013-11-17 14:35:00
7:55 AM,49.3,40.1,71,30.07,10.0,SW,6.9,-,N/A,,Clear,220,2013-11-17 14:55:00
8:15 AM,51.1,40.1,66,30.08,10.0,SSW,11.5,-,N/A,,Clear,210,2013-11-17 15:15:00
8:35 AM,52.9,40.3,62,30.09,10.0,WSW,12.7,-,N/A,,Clear,250,2013-11-17 15:35:00
8:55 AM,55.8,40.1,56,30.09,10.0,WSW,18.4,23.0,N/A,,Clear,250,2013-11-17 15:55:00
9:15 AM,57.7,39.2,50,30.10,10.0,WSW,25.3,32.2,N/A,,Clear,250,2013-11-17 16:15:00
9:35 AM,58.5,39.2,49,30.10,10.0,WSW,25.3,31.1,N/A,,Clear,250,2013-11-17 16:35:00
9:55 AM,59.0,39.6,49,30.12,10.0,WSW,21.9,29.9,N/A,,Clear,250,2013-11-17 16:55:00
10:15 AM,60.1,39.6,47,30.12,10.0,West,23.0,27.6,N/A,,Clear,260,2013-11-17 17:15:00
10:35 AM,60.4,39.4,46,30.13,10.0,West,20.7,27.6,N/A,,Clear,260,2013-11-17 17:35:00
10:55 AM,61.5,38.8,43,30.12,10.0,West,21.9,27.6,N/A,,Clear,260,2013-11-17 17:55:00
11:15 AM,62.1,39.0,43,30.12,10.0,WSW,20.7,25.3,N/A,,Clear,250,2013-11-17 18:15:00
11:35 AM,63.1,38.3,40,30.11,10.0,WSW,17.3,27.6,N/A,,Clear,250,2013-11-17 18:35:00
11:55 AM,64.4,37.2,37,30.09,10.0,WSW,21.9,31.1,N/A,,Clear,250,2013-11-17 18:55:00
12:15 PM,64.4,37.4,37,30.09,10.0,West,23.0,32.2,N/A,,Clear,260,2013-11-17 19:15:00
12:35 PM,65.1,36.7,35,30.08,10.0,WSW,18.4,26.5,N/A,,Clear,250,2013-11-17 19:35:00
12:55 PM,65.5,36.3,34,30.08,10.0,West,19.6,28.8,N/A,,Clear,260,2013-11-17 19:55:00
1:15 PM,65.7,35.8,33,30.07,10.0,West,20.7,26.5,N/A,,Clear,260,2013-11-17 20:15:00
1:35 PM,66.6,35.2,31,30.06,10.0,West,19.6,26.5,N/A,,Clear,270,2013-11-17 20:35:00
1:55 PM,66.4,34.9,31,30.06,10.0,WSW,15.0,27.6,N/A,,Clear,250,2013-11-17 20:55:00
2:15 PM,66.6,34.7,31,30.06,10.0,WSW,18.4,24.2,N/A,,Clear,250,2013-11-17 21:15:00
2:35 PM,66.4,33.8,30,30.05,10.0,West,24.2,33.4,N/A,,Clear,260,2013-11-17 21:35:00
2:55 PM,66.4,33.6,30,30.07,10.0,WSW,23.0,27.6,N/A,,Clear,250,2013-11-17 21:55:00
3:15 PM,66.2,33.3,29,30.07,10.0,WSW,18.4,-,N/A,,Clear,240,2013-11-17 22:15:00
3:35 PM,66.2,32.0,28,30.07,10.0,WSW,16.1,19.6,N/A,,Clear,250,2013-11-17 22:35:00
3:55 PM,65.7,31.8,28,30.07,10.0,WSW,16.1,26.5,N/A,,Clear,250,2013-11-17 22:55:00
4:15 PM,64.9,32.4,30,30.08,10.0,WSW,18.4,25.3,N/A,,Clear,250,2013-11-17 23:15:00
4:35 PM,64.0,32.9,31,30.08,10.0,WSW,12.7,21.9,N/A,,Clear,250,2013-11-17 23:35:00
4:55 PM,62.8,32.9,33,30.08,10.0,West,12.7,17.3,N/A,,Clear,260,2013-11-17 23:55:00
5:15 PM,61.0,32.9,35,30.09,10.0,WSW,11.5,16.1,N/A,,Clear,250,2013-11-18 00:15:00
5:35 PM,59.9,33.6,37,30.10,10.0,West,12.7,-,N/A,,Clear,260,2013-11-18 00:35:00
5:55 PM,58.3,33.8,40,30.10,10.0,West,11.5,-,N/A,,Clear,260,2013-11-18 00:55:00
6:15 PM,57.6,34.0,41,30.11,10.0,West,10.4,-,N/A,,Clear,260,2013-11-18 01:15:00
6:35 PM,56.7,34.0,42,30.12,10.0,West,10.4,-,N/A,,Clear,270,2013-11-18 01:35:00
6:55 PM,55.2,33.8,44,30.12,10.0,WNW,10.4,-,N/A,,Clear,290,2013-11-18 01:55:00
7:15 PM,54.5,33.4,45,30.12,10.0,West,12.7,-,N/A,,Clear,280,2013-11-18 02:15:00
7:35 PM,54.5,33.3,45,30.12,10.0,West,12.7,-,N/A,,Clear,260,2013-11-18 02:35:00
7:55 PM,55.8,32.0,41,30.12,10.0,West,10.4,-,N/A,,Clear,260,2013-11-18 02:55:00
8:15 PM,55.8,32.0,41,30.12,10.0,West,11.5,-,N/A,,Clear,260,2013-11-18 03:15:00
8:35 PM,55.6,31.6,40,30.13,10.0,West,11.5,-,N/A,,Clear,260,2013-11-18 03:35:00
8:55 PM,54.3,31.5,42,30.14,10.0,West,6.9,-,N/A,,Clear,260,2013-11-18 03:55:00
9:15 PM,50.4,31.5,48,30.15,10.0,Calm,Calm,-,N/A,,Clear,0,2013-11-18 04:15:00
9:35 PM,50.2,31.1,48,30.15,10.0,West,5.8,-,N/A,,Clear,270,2013-11-18 04:35:00
9:55 PM,50.9,30.9,46,30.16,10.0,West,8.1,-,N/A,,Clear,270,2013-11-18 04:55:00
10:15 PM,46.9,30.6,53,30.16,10.0,NW,4.6,-,N/A,,Clear,310,2013-11-18 05:15:00
10:35 PM,50.9,30.7,46,30.15,10.0,North,4.6,-,N/A,,Clear,10,2013-11-18 05:35:00
10:55 PM,49.5,30.2,48,30.16,10.0,NNW,5.8,-,N/A,,Clear,340,2013-11-18 05:55:00
11:15 PM,49.3,30.0,48,30.16,10.0,WNW,5.8,-,N/A,,Clear,290,2013-11-18 06:15:00
11:35 PM,48.4,30.0,49,30.16,10.0,NNW,3.5,-,N/A,,Clear,340,2013-11-18 06:35:00
11:55 PM,51.1,30.2,45,30.16,10.0,Calm,Calm,-,N/A,,Clear,0,2013-11-18 06:55:00